When you browse on this site, cookies collect data to enhance your experience and personalize the content and advertising you see.
Visit our Privacy Policy to learn more. By continuing to use the site, you agree to this use of cookies and data.
  • In Hungary
  • List of Countries
  • For 7 days
  • Water Temperature
  • Weather Map
  • News
  • Weather Widgets
  • user-avatar
    Login

    Hourly Weather Skrzynka

    Today, 13 December, Friday

    Time Temperature Precipitation Wind Pressure Humidity
    00:00 -3°C° 0 mm 4 mps 740 mmHg 92%
    01:00 -2°C° 0 mm 3 mps 739 mmHg 92%
    02:00 -3°C° 0 mm 4 mps 738 mmHg 89%
    03:00 -3°C° 0 mm 4 mps 737 mmHg 87%
    04:00 -2°C° 0 mm 4 mps 736 mmHg 84%
    05:00 -3°C° 0 mm 4 mps 736 mmHg 84%
    06:00 -3°C° 0 mm 4 mps 735 mmHg 84%
    07:00 -4°C° 0 mm 5 mps 734 mmHg 84%
    08:00 -2°C° 0 mm 5 mps 733 mmHg 84%
    09:00 -2°C° 0 mm 5 mps 733 mmHg 84%
    10:00 -2°C° 0 mm 6 mps 732 mmHg 85%
    11:00 0°C° 0 mm 5 mps 732 mmHg 83%
    12:00 0°C° 0 mm 5 mps 731 mmHg 81%
    13:00 +1°C° 0 mm 5 mps 731 mmHg 80%
    14:00 0°C° 0 mm 5 mps 730 mmHg 82%
    15:00 0°C° 0 mm 4 mps 730 mmHg 85%
    16:00 -1°C° 0 mm 4 mps 730 mmHg 87%
    17:00 -1°C° 0 mm 4 mps 730 mmHg 89%
    18:00 -1°C° 0 mm 4 mps 730 mmHg 90%
    19:00 -1°C° 0 mm 4 mps 730 mmHg 92%
    20:00 0°C° 0 mm 3 mps 731 mmHg 91%
    21:00 -1°C° 0 mm 3 mps 731 mmHg 90%
    22:00 -1°C° 0 mm 3 mps 731 mmHg 88%
    23:00 -1°C° 0 mm 3 mps 731 mmHg 88%

    Tomorrow, 14 December, Saturday

    Time Temperature Precipitation Wind Pressure Humidity
    00:00 -2°C° 0 mm 4 mps 731 mmHg 88%
    01:00 -1°C° 0 mm 4 mps 731 mmHg 88%
    02:00 -1°C° 0 mm 4 mps 731 mmHg 87%
    03:00 0°C° 0 mm 5 mps 731 mmHg 86%
    04:00 +1°C° 0 mm 5 mps 731 mmHg 85%
    05:00 +1°C° 0.3 mm 5 mps 731 mmHg 89%
    06:00 +1°C° 0.3 mm 5 mps 731 mmHg 92%
    07:00 +1°C° 0.3 mm 5 mps 732 mmHg 96%
    08:00 +1°C° 0.2 mm 5 mps 732 mmHg 93%
    09:00 +1°C° 0.2 mm 5 mps 732 mmHg 89%
    10:00 +2°C° 0.2 mm 5 mps 733 mmHg 86%
    11:00 +2°C° 0 mm 5 mps 733 mmHg 83%
    12:00 +2°C° 0 mm 6 mps 732 mmHg 80%
    13:00 +2°C° 0 mm 6 mps 732 mmHg 77%
    14:00 +2°C° 0.6 mm 6 mps 733 mmHg 82%
    15:00 +2°C° 0.6 mm 6 mps 733 mmHg 87%
    16:00 +2°C° 0.6 mm 6 mps 734 mmHg 91%
    17:00 +2°C° 0 mm 7 mps 735 mmHg 85%
    18:00 +2°C° 0 mm 7 mps 736 mmHg 79%
    19:00 +2°C° 0 mm 7 mps 737 mmHg 72%
    20:00 +2°C° 0 mm 7 mps 737 mmHg 73%
    21:00 +1°C° 0 mm 6 mps 738 mmHg 74%
    22:00 +1°C° 0 mm 6 mps 739 mmHg 75%
    23:00 +1°C° 0 mm 6 mps 740 mmHg 78%

    Day after tomorrow, 15 December, Sunday

    Time Temperature Precipitation Wind Pressure Humidity
    00:00 +1°C° 0 mm 6 mps 740 mmHg 81%
    01:00 0°C° 0 mm 7 mps 741 mmHg 85%
    02:00 +1°C° 0 mm 6 mps 741 mmHg 85%
    03:00 0°C° 0 mm 5 mps 741 mmHg 85%
    04:00 0°C° 0 mm 4 mps 742 mmHg 86%
    05:00 0°C° 0 mm 5 mps 741 mmHg 85%
    06:00 0°C° 0 mm 5 mps 741 mmHg 84%
    07:00 +1°C° 0 mm 6 mps 741 mmHg 83%
    08:00 +1°C° 0.8 mm 6 mps 740 mmHg 86%
    09:00 +2°C° 0.8 mm 7 mps 740 mmHg 89%
    10:00 +3°C° 0.8 mm 7 mps 739 mmHg 92%
    11:00 +4°C° 0.5 mm 8 mps 740 mmHg 83%
    12:00 +5°C° 0.5 mm 9 mps 741 mmHg 75%
    13:00 +6°C° 0.5 mm 9 mps 741 mmHg 66%
    14:00 +5°C° 0 mm 8 mps 742 mmHg 66%
    15:00 +4°C° 0 mm 7 mps 743 mmHg 66%
    16:00 +3°C° 0 mm 6 mps 744 mmHg 65%
    17:00 +2°C° 0 mm 6 mps 745 mmHg 68%
    18:00 +2°C° 0 mm 5 mps 746 mmHg 70%
    19:00 +1°C° 0 mm 5 mps 747 mmHg 72%
    20:00 +1°C° 0 mm 5 mps 747 mmHg 74%
    21:00 +1°C° 0 mm 4 mps 748 mmHg 76%
    22:00 0°C° 0 mm 4 mps 749 mmHg 78%
    23:00 0°C° 0 mm 4 mps 749 mmHg 79%

    16 December, Monday

    Time Temperature Precipitation Wind Pressure Humidity
    00:00 0°C° 0 mm 4 mps 749 mmHg 80%
    01:00 0°C° 0 mm 4 mps 749 mmHg 82%
    02:00 0°C° 0 mm 4 mps 749 mmHg 83%
    03:00 0°C° 0 mm 4 mps 750 mmHg 84%
    04:00 0°C° 0 mm 4 mps 750 mmHg 85%
    05:00 0°C° 0 mm 4 mps 750 mmHg 86%
    06:00 +1°C° 0 mm 4 mps 750 mmHg 87%
    07:00 +1°C° 0 mm 4 mps 749 mmHg 88%
    08:00 +1°C° 0 mm 4 mps 750 mmHg 88%
    09:00 +3°C° 0 mm 4 mps 750 mmHg 88%
    10:00 +3°C° 0 mm 4 mps 750 mmHg 88%
    11:00 +4°C° 0 mm 4 mps 750 mmHg 87%
    12:00 +5°C° 0 mm 4 mps 750 mmHg 86%
    13:00 +6°C° 0 mm 4 mps 749 mmHg 85%
    14:00 +6°C° 0 mm 4 mps 749 mmHg 88%
    15:00 +7°C° 0 mm 3 mps 749 mmHg 91%
    16:00 +5°C° 0 mm 3 mps 749 mmHg 94%
    17:00 +5°C° 0 mm 3 mps 749 mmHg 94%
    18:00 +5°C° 0 mm 3 mps 749 mmHg 94%
    19:00 +5°C° 0 mm 3 mps 749 mmHg 94%
    20:00 +5°C° 0 mm 3 mps 749 mmHg 91%
    21:00 +5°C° 0 mm 3 mps 749 mmHg 88%
    22:00 +5°C° 0 mm 4 mps 749 mmHg 85%
    23:00 +5°C° 0 mm 4 mps 749 mmHg 84%

    17 December, Tuesday

    Time Temperature Precipitation Wind Pressure Humidity
    00:00 +5°C° 0 mm 4 mps 748 mmHg 84%
    01:00 +4°C° 0 mm 4 mps 748 mmHg 84%
    02:00 +4°C° 0 mm 4 mps 748 mmHg 85%
    03:00 +4°C° 0 mm 4 mps 748 mmHg 85%
    04:00 +4°C° 0 mm 4 mps 748 mmHg 86%
    05:00 +4°C° 0 mm 3 mps 748 mmHg 88%
    06:00 +3°C° 0 mm 3 mps 748 mmHg 89%
    07:00 +3°C° 0 mm 3 mps 748 mmHg 90%
    08:00 +3°C° 0 mm 3 mps 748 mmHg 89%
    09:00 +4°C° 0 mm 3 mps 748 mmHg 87%
    10:00 +4°C° 0 mm 3 mps 748 mmHg 85%
    11:00 +5°C° 0 mm 3 mps 748 mmHg 81%
    12:00 +7°C° 0 mm 3 mps 748 mmHg 77%
    13:00 +8°C° 0 mm 3 mps 748 mmHg 73%
    14:00 +7°C° 0 mm 3 mps 748 mmHg 75%
    15:00 +7°C° 0 mm 3 mps 748 mmHg 77%
    16:00 +7°C° 0 mm 3 mps 748 mmHg 80%
    17:00 +5°C° 0 mm 3 mps 748 mmHg 80%
    18:00 +5°C° 0 mm 3 mps 748 mmHg 81%
    19:00 +5°C° 0 mm 3 mps 748 mmHg 82%
    20:00 +5°C° 0 mm 3 mps 748 mmHg 83%
    21:00 +5°C° 0 mm 3 mps 749 mmHg 84%
    22:00 +5°C° 0 mm 3 mps 749 mmHg 85%
    23:00 +4°C° 0 mm 3 mps 749 mmHg 85%

    18 December, Wednesday

    Time Temperature Precipitation Wind Pressure Humidity
    00:00 +4°C° 0 mm 3 mps 749 mmHg 85%
    01:00 +4°C° 0 mm 3 mps 749 mmHg 85%
    02:00 +4°C° 0 mm 3 mps 748 mmHg 84%
    03:00 +4°C° 0 mm 3 mps 748 mmHg 84%
    04:00 +4°C° 0 mm 3 mps 748 mmHg 83%
    05:00 +4°C° 0 mm 3 mps 748 mmHg 85%
    06:00 +3°C° 0 mm 3 mps 748 mmHg 86%
    07:00 +3°C° 0 mm 3 mps 748 mmHg 87%
    08:00 +3°C° 0 mm 3 mps 748 mmHg 86%
    09:00 +3°C° 0 mm 3 mps 749 mmHg 85%
    10:00 +4°C° 0 mm 3 mps 749 mmHg 84%
    11:00 +5°C° 0 mm 4 mps 748 mmHg 80%
    12:00 +6°C° 0 mm 4 mps 748 mmHg 77%
    13:00 +7°C° 0 mm 4 mps 748 mmHg 74%
    14:00 +6°C° 0 mm 4 mps 749 mmHg 77%
    15:00 +7°C° 0 mm 3 mps 749 mmHg 80%
    16:00 +5°C° 0 mm 3 mps 750 mmHg 83%
    17:00 +5°C° 0 mm 4 mps 750 mmHg 86%
    18:00 +5°C° 0 mm 4 mps 751 mmHg 88%
    19:00 +5°C° 0 mm 4 mps 751 mmHg 91%
    20:00 +4°C° 0 mm 4 mps 752 mmHg 90%
    21:00 +4°C° 0 mm 3 mps 752 mmHg 89%
    22:00 +4°C° 0 mm 2 mps 753 mmHg 88%
    23:00 +4°C° 0 mm 2 mps 753 mmHg 89%
    Show more